This demonstration page uses our WeatherBlox Daily Observations layout. Learn more.

38.89511, -77.03637

Hourly Observations for January 3, 2016

Temp ( °F °C ) Dew Point ( °F °C ) Humidity (%) Winds ( mph kmh ) Pressure ( in mb ) Visibility ( mi km ) Precip ( " mm )
12:52 am 00:52 Clear 37 2.8 31 -0.6 79 79 S 5 7 29.98 1015 10 16.0934 0 0
1:52 am 01:52 Clear 36 2.2 29 -1.7 76 76 Calm 29.97 1015 10 16.0934 0 0
2:52 am 02:52 Clear 34 1.1 29 -1.7 82 82 SW 5 7 29.97 1015 10 16.0934 0 0
3:52 am 03:52 Clear 32 0 28 -2.2 85 85 SSW 7 11 29.95 1014 10 16.0934 0 0
4:52 am 04:52 Mostly Clear 34 1.1 30 -1.1 85 85 S 3 6 29.93 1014 10 16.0934 0 0
5:52 am 05:52 Clear 32 0 27 -2.8 82 82 SSW 8 13 29.92 1013 10 16.0934 0 0
6:52 am 06:52 Mostly Clear 34 1.1 28 -2.2 79 79 WSW 3 6 29.92 1013 10 16.0934 0 0
7:52 am 07:52 Mostly Sunny 32 0 26 -3.3 79 79 SW 7 11 29.93 1014 10 16.0934 0 0
8:52 am 08:52 Mostly Sunny 35 1.7 30 -1.1 82 82 S 6 9 29.94 1014 10 16.0934 0 0
9:52 am 09:52 Mostly Sunny 39 3.9 28 -2.2 65 65 SSW 7 11 29.94 1014 10 16.0934 0 0
10:52 am 10:52 Partly Cloudy 42 5.6 31 -0.6 65 65 SE 5 7 29.92 1013 10 16.0934 0 0
11:52 am 11:52 Partly Cloudy 46 7.8 31 -0.6 56 56 S 6 9 29.89 1012 10 16.0934 0 0
12:52 pm 12:52 Partly Cloudy 49 9.4 32 0 52 52 S 12 19 29.86 1011 10 16.0934 0 0
1:52 pm 13:52 Partly Cloudy 51 10.6 26 -3.3 38 38 SSE 6 9 29.84 1011 10 16.0934 0 0
2:52 pm 14:52 Partly Cloudy 53 11.7 23 -5 31 31 E 3 6 29.84 1011 10 16.0934 0 0
3:52 pm 15:52 Partly Cloudy 52 11.1 27 -2.8 38 38 N 9 15 29.85 1011 10 16.0934 0 0
4:52 pm 16:52 Partly Cloudy 49 9.4 24 -4.4 38 38 NNW 9 15 29.87 1012 10 16.0934 0 0
5:52 pm 17:52 Mostly Clear 47 8.3 26 -3.3 44 44 N 20 31 29.92 1013 10 16.0934 0 0
6:52 pm 18:52 Mostly Clear 41 5 25 -3.9 53 53 N 20 31 29.97 1015 10 16.0934 0 0
7:52 pm 19:52 Mostly Clear 39 3.9 25 -3.9 57 57 N 15 24 29.98 1015 10 16.0934 0 0
8:52 pm 20:52 Mostly Clear 38 3.3 24 -4.4 57 57 N 9 15 30 1016 10 16.0934 0 0
9:52 pm 21:52 Mostly Clear 37 2.8 24 -4.4 59 59 N 8 13 30 1016 10 16.0934 0 0
10:52 pm 22:52 Mostly Clear 37 2.8 24 -4.4 59 59 NNW 8 13 30 1016 10 16.0934 0 0
11:52 pm 23:52 Partly Cloudy 36 2.2 24 -4.4 62 62 NNW 8 13 29.99 1016 10 16.0934 0 0

Powered by AerisWeather